415  
ASUS44 KCRP 242210  
HRRCRP  
 
SOUTH TEXAS REGIONAL WEATHER ROUNDUP  
NATIONAL WEATHER SERVICE CORPUS CHRISTI TX  
500 PM CDT TUE APR 24 2018  
 
TXZ229>244-242300-   
..CORPUS CHRISTI AREA OBSERVATIONS
 
 
 
CITY SKY/WX TMP DP RH WIND PRES REMARKS  
CORPUS CHRISTI PTSUNNY 83 56 39 E16 29.99F  
NAS CORPUS CHR PTSUNNY 81 63 54 SE16 30.00F  
ROCKPORT SUNNY 77 63 61 SE15 29.99F  
KINGSVILLE ARP FAIR 87 55 33 E15G22 29.98S  
KINGSVILLE NAS PTSUNNY 85 53 33 SE14 29.98F  
ALICE SUNNY 86 52 30 E17G33 29.96F  

 
   
..VICTORIA AREA OBSERVATIONS
 
 
 
CITY SKY/WX TMP DP RH WIND PRES REMARKS  
PORT LAVACA SUNNY 84 56 38 SE6 29.99F  
VICTORIA MOSUNNY 87 55 33 S9 29.98F  
BEEVILLE FAIR 88 55 32 SE14 29.98S  
PLEASANTON SUNNY 90 48 23 SE7 29.96F  
SAN ANTONIO PTSUNNY 86 51 29 SE14 29.99F  

 
   
..LAREDO AREA OBSERVATIONS
 
 
 
CITY SKY/WX TMP DP RH WIND PRES REMARKS  
LAREDO PTSUNNY 94 64 37 SE10 29.92F HX 95  
COTULLA SUNNY 95 55 26 SE12 29.91F HX 93  
DEL RIO MOSUNNY 94 60 32 SE13G22 29.89F HX 94  
MCALLEN MOSUNNY 91 61 36 SE16G24 29.95F HX 91  
HEBBRONVILLE PTSUNNY 91 53 27 SE13G18 29.94F  

 
   
..OTHER TEXAS OBSERVATIONS
 
 
 
CITY SKY/WX TMP DP RH WIND PRES REMARKS  
BROWNSVILLE FAIR 86 59 39 E16G24 29.99F  
HOUSTON PTSUNNY 84 59 42 VRB3 29.99F  
COL. STATION MOSUNNY 83 57 41 W5 30.00F  
AUSTIN PTSUNNY 84 56 38 S6 29.99F  
WACO MOSUNNY 85 52 32 CALM 29.99F  
FORT WORTH PTSUNNY 84 47 27 E6 29.99F  
WICHITA FALLS MOSUNNY 81 51 35 E8 30.01F  
LUBBOCK PTSUNNY 86 44 23 E9 29.99F  
EL PASO MOSUNNY 92 17 6 S12 29.97F  

 
   
..MARINE OBSERVATIONS
 
 
 
STATION/POSITION TIME SKY/WX TEMP WIND PRES VSBY WAVE SWELL  
AIR SEA DIR/SP/G HT/PER HT/PER  
(UTC) (F) (DEG/KT/KT) (MB) (MI) (FT/S) (FT/S)  
PORT ARANSAS 2100 72 74 90/ 11/ 13 1016.3  
BUOY 90 E PORT A 2150 73 76 50/ 6/ 8 1016.4F 1/ 6 2/ 6  
BUOY 200 E PT IS 2150 75 77 60/ 4/ 6 1016.5F 2/ 4 2/ 6  
BUOY 15 E GALVES 2050 73 75 200/ 6/ 6 1016.4 1/ 4  

 
 
 
CLICK HERE TO GO TO PREVIOUS BULLETINS.

The Nexlab TX Page Main Text Page